Location: Bogis-Bossey
(46.3500°N, 6.1667°E)
Time: 17:29:26
(UTC+00:00)

Meteor 1-5 Rocket - Pass Details

Date: 17 August 2022
Orbit: 788 x 915 km, 81.2° (Epoch: 30 September)

Event Time Altitude Azimuth Distance (km) Brightness Sun altitude
Exits shadow 21:35:09 46° 196° (SSW) 1,168 4.6 -24.2°
Maximum altitude 21:36:59 85° 280° (W) 897 4.2 -24.4°
Drops below altitude 10° 21:42:56 10° 10° (N) 2,594 7.3 -25.0°
Sets 21:45:27 0° 11° (NNE) 3,550 8.1 -25.2°
